Regional Weather Roundup
Issued by NWS State College, PA

Home | Current Version | Previous Version | Graphics & Text | Print | Product List | Glossary On
Versions: 1 2 3 4 5 6 7 8 9 10 11 12 13 14 15 16 17 18 19 20 21 22 23 24 25 26 27 28 29 30 31 32 33 34 35 36 37 38 39 40 41 42 43 44 45 46 47 48 49 50
000
ASUS41 KCTP 041303
RWRCTP

REGIONAL WEATHER ROUNDUP
NATIONAL WEATHER SERVICE STATE COLLEGE PA
800 AM EST SUN DEC 04 2016

Note: "fair" indicates few or no clouds below 12,000 feet with no
significant weather and/or obstructions to visibility.

* = STATION THAT DOES NOT REPORT PRECIPITATION /E.G. RAIN...SNOW...ETC/
    THUNDER OR FOG.

PAZ002>004-007>009-013>016-020>023-029>032-041400-
WESTERN PENNSYLVANIA

CITY           SKY/WX    TMP DP  RH WIND       PRES   REMARKS
ERIE           MIX PCPN  36  31  82 S8        30.24S
MEADVILLE      CLOUDY    32  29  88 S3        30.22S
FRANKLIN*        N/A     30  27  86 CALM      30.23F
NEW CASTLE     FAIR      31  28  89 E5        30.24F
BEAVER COUNTY  NOT AVBL
BUTLER*        CLOUDY    30  27  86 SE3       30.26F
PITTSBURGH INT CLOUDY    32  28  85 SE3       30.22F
PITTSBURGH     CLOUDY    32  24  72 CALM      30.23S
INDIANA*       CLOUDY    32  28  86 CALM      30.26F
LATROBE        NOT AVBL
WASHINGTON CO* CLOUDY    28  25  86 CALM      30.24S
$$

PAZ004>006-010>012-017>019-024>028-033>037-041-042-045-046-049>053-041400-
CENTRAL PENNSYLVANIA

CITY           SKY/WX    TMP DP  RH WIND       PRES   REMARKS
BRADFORD       CLOUDY    30  30 100 CALM      30.18S
DUBOIS         CLOUDY    32  29  88 SW3       30.20S FOG
CLEARFIELD     CLOUDY    34  33  96 S3        30.22S
JOHNSTOWN      CLOUDY    30  26  85 S5        30.18F
ALTOONA        CLOUDY    34  29  82 S7        30.24R
STATE COLLEGE  CLOUDY    36  32  87 CALM      30.23R
WILLIAMSPORT   CLOUDY    39  24  55 W6        30.24R
SELINSGROVE    CLOUDY    39  31  72 NW3       30.26R
FT INDIANTOWN  CLOUDY    41  27  57 NW2       30.25R
CAPITAL CITY   CLOUDY    43  28  55 NW5       30.26S
HARRISBURG     CLOUDY    42  27  55 N8        30.25S
YORK           CLOUDY    38  32  79 W5        30.26R
$$

PAZ038>040-043-044-047-048-054-055-060>062-067>071-041400-
EASTERN PENNSYLVANIA

CITY           SKY/WX    TMP DP  RH WIND       PRES   REMARKS
SCRANTON       CLOUDY    36  26  67 N6        30.21S
MOUNT POCONO   MOCLDY    30  23  75 NW12      30.15S
ALLENTOWN      CLOUDY    41  26  55 W3        30.23S
QUAKERTOWN*    CLOUDY    39  25  56 NW3       30.23S
READING        CLOUDY    41  25  53 NW8       30.24R
LANCASTER      CLOUDY    41  32  70 W5        30.25R
COATESVILLE    CLOUDY    39  27  60 N3        30.25S
POTTSTOWN      MOCLDY    39  25  57 NW3       30.26R
BLUE BELL      PTCLDY    36  30  80 CALM      30.24R
DOYLESTOWN     PTCLDY    40  25  55 NW3       30.22S
WILLOW GROVE   NOT AVBL
NORTH PHILA    PTCLDY    40  26  57 CALM      30.26R
PHILADELPHIA   MOCLDY    41  25  53 N3        30.26R
$$



USA.gov is the U.S. government's official web portal to all federal, state and local government web resources and services.